Lexington Weather

Lexington, Massachusetts, USA

68°F
7/3/2020 1:05pm 
  • Lexington Conditions: Overcast
  • Temperature: 67.8°F / 19.9°CColder 0.6°F than last hour.
  • Dew Point: 63.5°FDecreased 0.9°Fsince last hour.
  • Relative Humidity: 86%Decreased 1.0% since last hour.
  • Wind: Wind from NE NE 1 mph, 10-min avg: 1 mph, gust: 3 mph
  • Barometer: 29.86 in Steady
  • Visibility: 10 miles
  • Rain Today: 0.00 in
  •   

Regional Weather Roundup
for Boston / Norton, MA

        
000
ASUS41 KBOX 280004
RWRBOX

REGIONAL WEATHER ROUNDUP
NATIONAL WEATHER SERVICE BOSTON/NORTON MA
800 PM EDT SAT JUN 27 2020

NOTE:  "FAIR" INDICATES FEW OR NO CLOUDS BELOW 12,000 FEET WITH NO 
SIGNIFICANT WEATHER AND/OR OBSTRUCTIONS TO VISIBILITY.

MAZALL-280100-
EASTERN MASSACHUSETTS
  
CITY           SKY/WX    TMP DP  RH WIND       PRES   REMARKS
BOSTON         CLOUDY    68  63  84 SE8       29.72S                  
6HR MIN TEMP:  68; 6HR MAX TEMP:  79; 6HR PCP:  0.02;                

BEVERLY        CLOUDY    71  63  75 S6        29.70S                  
LAWRENCE       CLOUDY    74  63  68 VRB3      29.72F                  
BEDFORD        CLOUDY    72  62  71 S5        29.70S                  
BLUE HILL        N/A     65  64  97 SE8       29.71F                  
NORWOOD        CLOUDY    69  65  86 E3        29.70F                  
MARSHFIELD     CLOUDY    68  68 100 SE7       29.70F                  
PLYMOUTH       LGT RAIN  68  66  93 E6        29.70F FOG              
TAUNTON        CLOUDY    70  66  87 E3        29.68F                  
NEW BEDFORD    LGT RAIN  69  68  96 E8        29.68F                  
$$

MAZALL-280100-
CAPE COD AND THE ISLANDS
  
CITY           SKY/WX    TMP DP  RH WIND       PRES   REMARKS
FALMOUTH       LGT RAIN  68  68 100 SE6       29.71F                  
HYANNIS        LGT RAIN  70  67  90 SE9       29.69F FOG              
CHATHAM        RAIN      66  64  93 E6        29.72F FOG              
PROVINCETOWN   LGT RAIN  68  66  93 SE6       29.73F                  
NANTUCKET      HVY RAIN  67  65  93 SE14      29.71F FOG              
MARTHAS VNYRD  LGT RAIN  68  67  96 S12G21    29.69F FOG              
$$
 
MAZALL-280100-
CENTRAL AND WESTERN MASSACHUSETTS
  
CITY           SKY/WX    TMP DP  RH WIND       PRES   REMARKS
WORCESTER      CLOUDY    66  62  87 E5        29.73F                  
6HR MIN TEMP:  66; 6HR MAX TEMP:  72; 6HR PCP:  0.21;                

FITCHBURG      CLOUDY    71  60  68 S8        29.72S                  
ORANGE         CLOUDY    69  64  84 CALM      29.74R                  
SPRINGFIELD    CLOUDY    67  65  91 W3        29.71R                  
WESTFIELD      CLOUDY    67  64  90 CALM      29.72R                  
NORTH ADAMS    CLOUDY    66  64  93 CALM      29.74R                  
PITTSFIELD     CLOUDY    66  63  90 N3        29.75R                  
$$
 
RIZALL-280100-
RHODE ISLAND
  
CITY           SKY/WX    TMP DP  RH WIND       PRES   REMARKS
PROVIDENCE     CLOUDY    69  68  96 CALM      29.68F                  
6HR MIN TEMP:  67; 6HR MAX TEMP:  78; 6HR PCP:  0.39;                

NEWPORT        CLOUDY    70  68  93 S9        29.67F FOG              
BLOCK ISLAND   CLOUDY    67  66  97 SW17      29.68F                  
SMITHFIELD     LGT RAIN  65  65 100 NE5       29.71S FOG              
WESTERLY       CLOUDY    72  67  84 W6        29.67F HAZE             
$$
 
CTZALL-280100-
CONNECTICUT
  
CITY           SKY/WX    TMP DP  RH WIND       PRES   REMARKS
BRADLEY INTL   MOCLDY    65  64  97 NW6       29.71R                  
6HR MIN TEMP:  65; 6HR MAX TEMP:  72; 6HR PCP:  0.36;                

HARTFORD       MOCLDY    68  63  84 NW6       29.71S                  
BRIDGEPORT     CLOUDY    75  70  84 CALM      29.70R                  
DANBURY        MOCLDY    73  67  81 NW5       29.73R                  
GROTON         CLOUDY    70  68  93 W9        29.67S                  
NEW HAVEN      CLOUDY    73  69  87 N8        29.70R                  
CHESTER        NOT AVBL                                               
MERIDEN        MOCLDY    68  64  87 NW6       29.71S                  
WILLIMANTIC    CLOUDY    67  66  97 N8        29.69S                  
OXFORD         MOCLDY    68  66  94 CALM      29.74R                  
$$

MEZ002-015-021-024-NHZ003-005-008-011-012-014-VTZ005-008-280100-
NORTHERN NEW ENGLAND
  
CITY           SKY/WX    TMP DP  RH WIND       PRES   REMARKS
PORTLAND ME    MOCLDY    74  61  63 S3        29.71S                  
6HR MIN TEMP:  73; 6HR MAX TEMP:  78;                                

BANGOR ME      MOCLDY    71  56  58 S6        29.73S                  
CONCORD NH     CLOUDY    72  61  68 CALM      29.72R                  
MANCHESTER NH  CLOUDY    75  60  59 S6        29.70S                  
NASHUA NH      CLOUDY    73  66  78 CALM      29.71S                  
PORTSMOUTH NH  MOCLDY    74  58  58 CALM      29.69S                  
JAFFREY NH     CLOUDY    69  60  73 CALM      29.75R                  
KEENE NH       CLOUDY    69  62  78 CALM      29.73R                  
BURLINGTON VT  LGT RAIN  75  58  55 S12       29.69R                  
MT. WASHINGTON FOG       48  48 100 S10         N/A  VSB 1/8          
$$

NYZ052-076-280100-
EASTERN NEW YORK
  
CITY           SKY/WX    TMP DP  RH WIND       PRES   REMARKS
ALBANY         MOCLDY    71  63  75 CALM      29.74R                  
6HR MIN TEMP:  67; 6HR MAX TEMP:  72; 6HR PCP:  0.06;                

NEW YORK CITY  CLOUDY    78  68  71 SW3       29.71R                  
6HR MIN TEMP:  73; 6HR MAX TEMP:  85; 6HR PCP:  0.25;                

$$
 
ANZALL-280100-
MARINE OBSERVATIONS
  
STATION/POSITION TIME  TEMP    WIND        PRES    VSBY  WAVE
                       AIR SEA DIR/SP/G                  HT/PER
                 (UTC) (F)     (DEG/KT/KT) (MB)    (MI)  (FT/S)
BOSTON BUOY      2350   67 68  140/ 10/ 12 1004.8F         1/15
BUZZARDS BAY     2300          130/ 11/ 12 1006.7F
NANTUCKET SOUND  2350   67 69  140/ 16/ 19 1004.8F         1/ 2
MASS BAY-STELLWA 2304   66     210/  8/ 10 1003.9F  1 7/8  2/ 8
ISLE OF SHOALS   2300   73     190/ 11/ 13 1005.6F
S OF BLOCK IS    2326      70                N/A           3/ 4
$$

......................KEY.........................
  SKY/WX - SKY CONDITION/PRESENT WEATHER
  TMP    - TEMPERATURE IN FAHRENHEIT
  DWPT   - DEWPOINT IN FAHRENHEIT
  RH     - RELATIVE HUMIDITY IN PERCENT
  WIND   - DIRECTION AND SPEED IN MPH
  PRES   - MEAN SEA LEVEL PRESSURE IN INCHES OF HG
  WCI    - WIND CHILL INDEX
  VSB    - VISIBILITY IN MILES
  HX     - HEAT INDEX
  TC     - TEMPERATURE IN CELSIUS
  VRB    - VARIABLE WIND DIRECTION
  N/A    - NOT AVAILABLE
  
      

Other recent Regional Weather Roundups

Fri Jul 3, 12:04pm

Fri Jul 3, 11:04am

Fri Jul 3, 10:04am

Fri Jul 3, 9:04am

Fri Jul 3, 8:04am

Fri Jul 3, 7:04am

Fri Jul 3, 6:04am

Fri Jul 3, 5:04am

Fri Jul 3, 4:04am

Fri Jul 3, 3:04am

Fri Jul 3, 2:04am

Fri Jul 3, 1:04am

Fri Jul 3, 12:04am

Thu Jul 2, 11:05pm

Thu Jul 2, 10:04pm

Thu Jul 2, 9:04pm

Thu Jul 2, 8:04pm

Thu Jul 2, 7:05pm

Thu Jul 2, 6:04pm

Thu Jul 2, 5:05pm

Thu Jul 2, 4:04pm

Thu Jul 2, 3:04pm

Thu Jul 2, 2:04pm

Thu Jul 2, 1:05pm

Thu Jul 2, 12:04pm

Thu Jul 2, 11:04am

Thu Jul 2, 10:05am

Thu Jul 2, 9:05am

Thu Jul 2, 8:04am

Thu Jul 2, 7:04am

Thu Jul 2, 6:05am

Thu Jul 2, 5:04am

Thu Jul 2, 4:04am

Thu Jul 2, 3:04am

Thu Jul 2, 2:04am

Thu Jul 2, 1:04am

Thu Jul 2, 12:05am

Wed Jul 1, 11:05pm

Wed Jul 1, 10:04pm

Wed Jul 1, 9:04pm

Wed Jul 1, 8:04pm

Wed Jul 1, 7:04pm

Wed Jul 1, 6:04pm

Wed Jul 1, 5:05pm

Wed Jul 1, 4:04pm

Wed Jul 1, 3:04pm

Wed Jul 1, 2:04pm

Wed Jul 1, 1:04pm

Wed Jul 1, 12:04pm

Wed Jul 1, 11:04am

Wed Jul 1, 10:04am

Wed Jul 1, 9:04am

Wed Jul 1, 8:05am

Wed Jul 1, 7:04am

Wed Jul 1, 6:04am

Wed Jul 1, 5:04am

Wed Jul 1, 4:04am

Wed Jul 1, 3:04am

Wed Jul 1, 2:04am

Wed Jul 1, 1:04am

Wed Jul 1, 12:04am

Tue Jun 30, 11:04pm

Tue Jun 30, 10:05pm

Tue Jun 30, 9:04pm

Tue Jun 30, 8:05pm

Tue Jun 30, 7:05pm

Tue Jun 30, 6:04pm

Tue Jun 30, 5:04pm

Tue Jun 30, 4:04pm

Tue Jun 30, 3:04pm

Tue Jun 30, 2:04pm

Tue Jun 30, 1:04pm

Tue Jun 30, 12:04pm

Tue Jun 30, 11:04am

Tue Jun 30, 10:04am

Tue Jun 30, 9:04am

Tue Jun 30, 8:04am

Tue Jun 30, 7:04am

Tue Jun 30, 6:04am

Tue Jun 30, 5:04am

Tue Jun 30, 4:04am

Tue Jun 30, 3:04am

Tue Jun 30, 2:04am

Tue Jun 30, 1:04am

Tue Jun 30, 12:04am

Mon Jun 29, 11:04pm

Mon Jun 29, 10:05pm

Mon Jun 29, 9:04pm

Mon Jun 29, 8:05pm

Mon Jun 29, 7:04pm

Mon Jun 29, 6:04pm

Mon Jun 29, 5:04pm

Mon Jun 29, 4:05pm

Mon Jun 29, 3:04pm

Mon Jun 29, 2:04pm

Mon Jun 29, 1:04pm

Mon Jun 29, 12:04pm

Mon Jun 29, 11:04am

Mon Jun 29, 10:04am

Mon Jun 29, 9:04am

Mon Jun 29, 8:04am

Mon Jun 29, 7:04am

Mon Jun 29, 6:04am

Mon Jun 29, 5:04am

Mon Jun 29, 4:04am

Mon Jun 29, 3:04am

Mon Jun 29, 2:04am

Mon Jun 29, 1:04am

Mon Jun 29, 12:04am

Sun Jun 28, 11:05pm

Sun Jun 28, 10:04pm

Sun Jun 28, 9:05pm

Sun Jun 28, 8:04pm

Sun Jun 28, 7:04pm

Sun Jun 28, 6:04pm

Sun Jun 28, 5:04pm

Sun Jun 28, 4:04pm

Sun Jun 28, 3:04pm

Sun Jun 28, 2:05pm

Sun Jun 28, 1:04pm

Sun Jun 28, 12:04pm

Sun Jun 28, 11:04am

Sun Jun 28, 10:04am

Sun Jun 28, 9:04am

Sun Jun 28, 8:04am

Sun Jun 28, 7:04am

Sun Jun 28, 6:04am

Sun Jun 28, 5:04am

Sun Jun 28, 4:04am

Sun Jun 28, 3:04am

Sun Jun 28, 2:05am

Sun Jun 28, 1:04am

Sun Jun 28, 12:05am

Sat Jun 27, 11:04pm

Sat Jun 27, 10:04pm

Sat Jun 27, 9:04pm

Sat Jun 27, 7:04pm

Sat Jun 27, 6:04pm

Sat Jun 27, 5:04pm

Sat Jun 27, 4:05pm

Sat Jun 27, 3:04pm

Sat Jun 27, 2:04pm

Sat Jun 27, 1:05pm

Sat Jun 27, 12:04pm

Sat Jun 27, 11:04am

Sat Jun 27, 10:04am

Sat Jun 27, 9:04am

Sat Jun 27, 8:04am

Sat Jun 27, 7:04am

Sat Jun 27, 6:04am

Sat Jun 27, 5:05am

Sat Jun 27, 4:04am

Sat Jun 27, 3:04am

Sat Jun 27, 2:04am

Sat Jun 27, 1:04am

Sat Jun 27, 12:04am

Fri Jun 26, 11:04pm

Fri Jun 26, 10:04pm

Fri Jun 26, 9:05pm

Fri Jun 26, 8:04pm

Fri Jun 26, 7:05pm

Fri Jun 26, 6:04pm

Fri Jun 26, 5:04pm

Fri Jun 26, 4:04pm

Fri Jun 26, 3:04pm

Fri Jun 26, 2:05pm

Fri Jun 26, 1:04pm

Meta data:

ID: 8e67851c-3009-47f5-a143-d5cd9a2fb806
Link: https://api.weather.gov/products/8e67851c-3009-47f5-a143-d5cd9a2fb806